Regional Weather Roundup
Issued by NWS

Home | Current Version | Previous Version | Graphics & Text | Print | Product List | Glossary Off
Versions: 1 2 3 4 5 6 7 8 9 10 11 12 13 14 15 16 17 18 19 20 21 22 23 24 25 26 27 28 29 30 31 32 33 34 35 36 37 38 39 40 41 42 43 44 45 46 47 48 49 50

000
ASUS43 KMKX 252100
RWRWI

WISCONSIN REGIONAL WEATHER ROUNDUP
NATIONAL WEATHER SERVICE MILWAUKEE/SULLIVAN WI
400 PM CDT TUE APR 25 2017

NOTE: "FAIR" INDICATES FEW OR NO CLOUDS BELOW 12,000 FEET WITH NO
SIGNIFICANT WEATHER AND/OR OBSTRUCTIONS TO VISIBILITY.

WIZ001-002-006>008-014>016-023>028-252200-
NORTHWEST WISCONSIN

CITY           SKY/WX    TMP DP  RH WIND       PRES   REMARKS
SUPERIOR ARPT  CLOUDY    44  38  78 NE16      29.63S
ASHLAND        CLOUDY    48  40  73 NE13      29.63R
HAYWARD        CLOUDY    62  40  44 N14G21    29.56S
SIREN          CLOUDY    64  44  48 NE8       29.55R
CUMBERLAND     CLOUDY    66  43  42 SW8       29.54R
RICE LAKE      LGT RAIN  69  45  42 SW15      29.55R
CHETEK         CLOUDY    70  46  42 S8        29.53R
LADYSMITH      CLOUDY    72  41  33 S12       29.55F
EAU CLAIRE     LGT RAIN  66  49  54 SW12G22   29.55R
MENOMONIE      RAIN      62  52  70 SW6       29.56R
NEW RICHMOND   DRIZZLE   59  48  65 W8        29.57R
OSCEOLA        RAIN      58  51  75 SW8       29.59R
$$

WIZ003>005-009-010-017-018-252200-
NORTH CENTRAL WISCONSIN

CITY           SKY/WX    TMP DP  RH WIND       PRES   REMARKS
MANITOWISH WTR CLOUDY    71  39  31 SE10      29.56S
ARBOR VITAE      N/A     72  38  29 S7        29.56F
WOODRUFF         N/A     72  38  29 S7        29.56F
RHINELANDER    PTSUNNY   74  39  28 SW10      29.57F
EAGLE RIVER    CLOUDY    72  33  24 S8        29.57F
LAND O LAKES   CLOUDY    73  32  22 S7        29.59S
PHILLIPS       CLOUDY    70  43  36 S9        29.54F
TOMAHAWK       CLOUDY    72  39  30 S6        29.57F
MEDFORD        CLOUDY    69  42  37 SE7       29.55F
MERRILL        CLOUDY    73  39  29 SE7       29.57S
$$

WIZ029-030-035-036-043>047-252200-
CENTRAL WISCONSIN

CITY           SKY/WX    TMP DP  RH WIND       PRES   REMARKS
WAUSAU         CLOUDY    72  38  29 S12       29.54F
MOSINEE        MOSUNNY   72  37  28 S13G20    29.56F
MARSHFIELD     CLOUDY    70  40  33 S10       29.54F
STEVENS POINT  CLOUDY    73  40  30 SE15G21   29.55F
WAUPACA        MOSUNNY   78  41  26 SE10G20   29.57F
WAUTOMA        CLOUDY    74  43  32 S15       29.55F
WISC RAPIDS    CLOUDY    74  40  29 S10       29.54F
CAMP DOUGLAS   LGT RAIN  70  43  37 S12G18    29.55R
$$

WIZ011>013-019>022-031-037>040-048>050-252200-
NORTHEAST WISCONSIN

CITY           SKY/WX    TMP DP  RH WIND       PRES   REMARKS
ANTIGO         CLOUDY    69  46  43 SE14      29.60S
SHAWANO        MOSUNNY   76  41  28 S7G17     29.58F
OCONTO         MOSUNNY   68  50  53 SE13      29.61F
STURGEON BAY   MOSUNNY   62  52  69 S23G29    29.63F
GREEN BAY      MOSUNNY   71  52  50 SE15G23   29.60F
MANITOWOC      NOT AVBL
APPLETON       MOSUNNY   72  48  43 SE16G22   29.58S
CLINTONVILLE   MOSUNNY   73  41  31 S10       29.57F
OSHKOSH        MOSUNNY   72  52  49 SE15G23   29.57F
$$

WIZ032>034-041-042-053>061-252200-
SOUTHWEST WISCONSIN

CITY           SKY/WX    TMP DP  RH WIND       PRES   REMARKS
LA CROSSE      CLOUDY    61  55  81 N6        29.54S
SPARTA         RAIN      66  49  53 SW5       29.57R
VIROQUA        CLOUDY    64  51  61 SE3       29.55F
BOSCOBEL       PTSUNNY   73  43  33 VRB3      29.52R
PRAIRIE DU CHI CLOUDY    71  42  35 E8        29.51F
PLATTEVILLE    CLOUDY    74  44  34 SE16G23   29.53S
$$

WIZ056-057-062-063-064-067-068-252200-
SOUTH CENTRAL WISCONSIN

CITY           SKY/WX    TMP DP  RH WIND       PRES   REMARKS
REEDSBURG      LGT RAIN  67  45  44 S3        29.54S
BARABOO/DELLS  CLOUDY    69  40  34 SE5       29.55F
LONE ROCK      NOT AVBL
MINERAL POINT  CLOUDY    72  37  28 SE17G24   29.54R
MADISON        LGT RAIN  72  43  35 S17       29.54F
MIDDLETON      CLOUDY    73  43  33 SE10      29.54F
WATERTOWN      CLOUDY    71  48  43 SE9       29.56F
MONROE         CLOUDY    72  45  37 SE21G30   29.54F
JANESVILLE     PTSUNNY   75  43  31 S17G23    29.55S
$$

WIZ051-052-058>065-066-070>072-252200-
SOUTHEAST WISCONSIN

CITY           SKY/WX    TMP DP  RH WIND       PRES   REMARKS
MILWAUKEE      CLOUDY    66  51  58 SE14      29.60F
WAUKESHA       MOSUNNY   68  48  49 E14G23    29.59F
MILWAUKEE/TIMM SUNNY     70  45  40 SE15      29.61F
RACINE         CLOUDY    64  49  57 SE10      29.61F
KENOSHA        CLOUDY    70  49  47 SE15G24   29.58F
FOND DU LAC    CLOUDY    72  49  44 SE17      29.57F
SHEBOYGAN      CLOUDY    61  52  72 S17G25    29.63F
WEST BEND      CLOUDY    68  46  45 SE13      29.61F
JUNEAU         MOSUNNY   71  46  40 SE12G17   29.58F
$$

LSZ147-162-252200-
LAKE SUPERIOR

STATION/POSITION TIME  TEMP    WIND        PRES    WAVE
                       AIR SEA DIR/SP/G            HT/PER
                 (UTC) (F)     (DEG/KT/KT) (MB)    (FT/S)
DEVILS ISLAND    2000   40      50/ 22/ 25 1004.2S
SAXON HARBOR     2040   41      20/  6/  7 1003.7R
$$

LMZ867-665-643>646-252200-
LAKE MICHIGAN

STATION/POSITION TIME  TEMP    WIND        PRES    WAVE
                       AIR SEA DIR/SP/G            HT/PER
                 (UTC) (F)     (DEG/KT/KT) (MB)    (FT/S)
CHAMBERS ISLAND  2040   62     130/  8/ 16 1004.1S
N MID LAKE BUOY  1950   41 37   80/  6/  8 1007.1F   1/ 4
NORTHPORT PIER   2040   48     130/ 13/ 15 1004.7F
SISTER BAY       2021   65     180/ 22/ 28   N/A
KEWAUNEE LAKESHO 2030   49     170/ 10/ 12 1004.1F
SHEBOYGAN LAKESH 2000   45     150/  6/  7 1004.2F
PORT WASHINGTON  2040   51     160/  4/  6 1004.4F
MILWAUKEE LAKESH 2030   50     150/ 10/ 11   N/A
S MID LAKE BUOY  1950   48 42  110/  8/  8 1005.1F   1
KENOSHA   LAKESH 2000   54     190/  5/ 11 1004.1
$$

TC  - TEMPERATURE IN CELSIUS
VSB - VISIBILITY IN STATUTE MILES
WCI - WIND CHILL INDEX
HX  - HEAT INDEX





USA.gov is the U.S. government's official web portal to all federal, state and local government web resources and services.